STARLINK-35874 (66962 NORAD) Tracking and Keplerian Element Data

This shows tracking and keplerian element data for the satellite.

Feedback or suggestion? Click here.




ElementValue
Catalog66962
NameSTARLINK-35874
Epoch Orbit303
Epoch Day354.25003472
Epoch Year2025
RAAN121.1668
Inclination43.0013
Eccentricity0.00018
Argument of Perigee265.5521
Mean Anonmoly98.5449
Mean Motion15.81325632
Decay Rate-0.01290342
L11 66962U 25288D 25354.25003472 -.01290342 00000+0 -71846-2 0 9996
L22 66962 43.0013 121.1668 0001800 265.5521 98.5449 15.81325632 3033



Live tracking and technical data element details for STARLINK-35874 (NORAD 66962). STARLINK-35874 can be tracked NOW for your location showing map with azimuth and elevation plus other details from your city location.







IsCatalogInMostPopularTable: catalog: 66962, numindb: 7
Update: records affected: 1



GetName: 66962 STARLINK-35874

Hit Count: updated at: Tue, 10 Feb 2026 03:42:50 GMT